Regional Weather Roundup
Issued by NWS Kansas City/Pleasant Hill, MO

Home | Current Version | Previous Version | Text Only | Print | Product List | Glossary On
Versions: 1 2 3 4 5 6 7 8 9 10 11 12 13 14 15 16 17 18 19 20 21 22 23 24 25 26 27 28 29 30 31 32 33 34 35 36 37 38 39 40 41 42 43 44 45 46 47 48 49 50
000
ASUS43 KEAX 231604
RWREAX

WEATHER ROUNDUP FOR EASTERN KANSAS AND NORTHWEST MISSOURI
NATIONAL WEATHER SERVICE KANSAS CITY/PLEASANT HILL MO
1100 AM CDT THU OCT 23 2014

KSZ040-057-103>105-MOZ028-029-037-043-231700-
...KANSAS CITY METROPOLITAN AREA...

CITY           SKY/WX    TMP DP  RH WIND       PRES   REMARKS
K.C. INTL      CLOUDY    63  60  90 SW9       30.10R
K.C. DOWNTOWN  PTSUNNY   65  60  84 S10       30.10R
LEES SUMMIT    CLOUDY    60  57  89 S8        30.12R
OLATHE - IXD   CLOUDY    63  60  90 S13G21    30.11S
OLATHE - OJC   CLOUDY    62  60  93 SW9G18    30.10S
LAWRENCE       CLOUDY    64  60  87 SW12      30.10S

$$

MOZ001>008-011>017-020>025-030>033-038>040-044>046-053-054-231700-
...NORTHERN AND CENTRAL MISSOURI...

CITY           SKY/WX    TMP DP  RH WIND       PRES   REMARKS
ST. JOSEPH     CLOUDY    63  60  90 SW5       30.09R
MOSBY            N/A     59  59 100 S3        30.11R
WHITEMAN AFB   PTSUNNY   59  52  78 SW9       30.14R
CLINTON        CLOUDY    61  55  82 S5        30.15R HAZE
SEDALIA        CLOUDY    58  48  69 SW9       30.16R
WARSAW         NOT AVBL
MARSHALL       CLOUDY    61  52  72 SW7       30.15R
CHILLICOTHE      N/A     63  56  78 S9        30.12R
KIRKSVILLE     PTSUNNY   58  51  78 S9        30.13S

$$

MOZ041-047>049-056>058-063>065-088>090-097-231700-
...EASTERN AND SOUTHERN MISSOURI...

CITY           SKY/WX    TMP DP  RH WIND       PRES   REMARKS
ST. LOUIS INTL PTSUNNY   60  42  51 S12       30.21F
SPIRIT OF STL  PTSUNNY   57  43  59 S7        30.20F
COLUMBIA       CLOUDY    57  47  69 S8        30.15F
JEFFERSON CITY CLOUDY    58  45  62 S6        30.17F
MEXICO         CLOUDY    55  48  76 S8        30.16
ROLLA          CLOUDY    55  43  63 S15       30.17F
LEBANON        CLOUDY    57  45  62 S6        30.19S
OSAGE BEACH    CLOUDY    55  43  62 S8        30.17F
SPRINGFIELD    LGT RAIN  54  48  80 S7        30.19R
BRANSON        CLOUDY    55  46  71 CALM      30.22R
JOPLIN         LGT RAIN  57  55  93 S8        30.18F
WEST PLAINS    CLOUDY    53  43  68 SE5       30.23S

$$

IAZ060-094-KSZ022-034>040-054-083-096-NEZ052-066-093-231700-
...KANSAS...SOUTHEAST NEBRASKA AND IOWA...

CITY           SKY/WX    TMP DP  RH WIND       PRES   REMARKS
TOPEKA         CLOUDY    65  62  90 SW10      30.09S
MANHATTAN      CLOUDY    65  61  87 SW7       30.10R
EMPORIA        CLOUDY    62  61  96 SW14      30.11S
CHANUTE        CLOUDY    61  58  90 S15G22    30.14S
WICHITA        CLOUDY    65  60  84 S8        30.11R
OMAHA          PTSUNNY   61  56  83 W7        30.08R
LINCOLN        FOG       56  54  93 W3        30.10R VSB 1/4
FALLS CITY     MOSUNNY   66  61  84 SW12      30.08R
LAMONI         LGT RAIN  59  56  89 S8        30.08S
DES MOINES     CLOUDY    59  56  89 SW8       30.05S

$$




USA.gov is the U.S. government's official web portal to all federal, state and local government web resources and services.